Regional Weather Roundup
Issued by NWS

Home | Current Version | Previous Version | Text Only | Print | Product List | Glossary Off
Versions: 1 2 3 4 5 6 7 8 9 10 11 12 13 14 15 16 17 18 19 20 21 22 23 24 25 26 27 28 29 30 31 32 33 34 35 36 37 38 39 40 41 42 43 44 45 46 47 48 49 50

000
ASUS44 KOUN 260710
RWROK

WEATHER ROUNDUP FOR OKLAHOMA
NATIONAL WEATHER SERVICE NORMAN OK
200 AM CDT SUN OCT 26 2014

NOTE: "FAIR" INDICATES FEW OR NO CLOUDS BELOW 12,000 FEET WITH NO
      SIGNIFICANT WEATHER AND/OR OBSTRUCTIONS TO VISIBILITY.

OKZ001>007-009>012-014-015-017-260800-
NORTHWEST OKLAHOMA AND THE PANHANDLE

CITY           SKY/WX    TMP DP  RH WIND       PRES   REMARKS
GAGE           CLEAR     67  52  58 S16       29.94F
ENID/WOODRING    N/A     59  55  88 S8        29.93F
$$

OKZ016-021>023-033>039-044-045-260800-
SOUTHWEST OKLAHOMA

CITY           SKY/WX    TMP DP  RH WIND       PRES   REMARKS
LAWTON/REGL    CLEAR     64  56  75 S7        29.98F
LAWTON/FT SILL CLEAR     66  57  71 S6        29.97F
FREDERICK      CLEAR     64  53  67 S8        29.95F
CLINTON        CLEAR     66  52  60 S14       29.99F
HOBART         CLEAR     63  52  67 S12       29.98F
ALTUS AFB      CLEAR     57  53  85 SE3       29.97F
$$

OKZ018>020-024>031-260800-
CENTRAL OKLAHOMA

CITY           SKY/WX    TMP DP  RH WIND       PRES   REMARKS
OKLAHOMA CITY  CLEAR     65  57  75 SE6       29.98S
OKC/WILEY POST CLEAR     72  58  61 S15       29.97S
OKC/TINKER AFB CLEAR     64  57  77 S7        29.99F
STILLWATER     CLEAR     67  57  70 S6        29.95S
GUTHRIE        CLEAR     69  58  67 S9        29.95F
$$

OKZ008-013-054>072-260800-
NORTHEAST OKLAHOMA

CITY           SKY/WX    TMP DP  RH WIND       PRES   REMARKS
TULSA          CLEAR     69  63  81 S7        29.95F
TULSA/JONES    CLEAR     61  60  97 CALM      29.96F FOG
PONCA CITY     CLEAR     68  56  65 S3        29.94R
BARTLESVILLE   FOG       55  55 100 CALM      29.96S VSB 1/2
MUSKOGEE       CLEAR     63  61  93 S6        29.99S
$$

OKZ032-040>043-046>053-073>077-260800-
SOUTH CENTRAL/SOUTHEAST OKLAHOMA

CITY           SKY/WX    TMP DP  RH WIND       PRES   REMARKS
ARDMORE/DWNTWN CLEAR     63  59  88 CALM      30.00F
MCALESTER      CLEAR     71  62  73 S7        30.01S
$$




USA.gov is the U.S. government's official web portal to all federal, state and local government web resources and services.